EW1970 Weather Reports


Display with metric or nautical units.
time (UTC)temp
F
wind
direction
speed
MPH
gust
MPH
rain 1hr
in
rain 24hr
in
rain mn
in
humidity
%
barometer
mb
20260506184527 72 325 4.0 11.0 0.00 0.00 0.00 76 1012.5
20260506183014 73 26 3.0 8.0 0.00 0.00 0.00 73 1012.5
20260506181518 72 269 2.0 8.0 0.00 0.00 0.00 77 1012.5
20260506180032 71 167 1.0 5.0 0.00 0.00 0.00 78 1012.4
20260506174525 70 80 1.0 4.0 0.00 0.00 0.00 81 1012.3
20260506173026 68 334 1.0 6.0 0.00 0.00 0.00 82 1012.3
20260506171520 67 5 0.0 6.0 0.00 0.00 0.00 84 1012.3
20260506170020 66 74 1.0 4.0 0.00 0.00 0.00 85 1012.5
20260506164525 64 360 0.0 7.0 0.00 0.00 0.00 88 1012.5
20260506163028 63 49 1.0 4.0 0.00 0.00 0.00 90 1013.2
20260506161528 61 182 1.0 8.0 0.00 0.00 0.00 91 1013.5
20260506160018 61 252 1.0 12.0 0.00 0.00 0.00 90 1014.4
20260506154524 63 85 3.0 11.0 0.00 0.00 0.00 89 1013.7
20260506153039 65 360 5.0 12.0 0.00 0.00 0.00 88 1013.6
20260506151528 66 342 3.0 11.0 0.00 0.00 0.00 87 1012.6
20260506150030 68 360 2.0 10.0 0.00 0.00 0.00 86 1012.4
20260506144536 73 332 1.0 13.0 0.00 0.00 0.00 80 1011.3
20260506143030 77 195 0.0 3.0 0.00 0.00 0.00 87 1011.0
20260506141526 77 300 0.0 2.0 0.00 0.00 0.00 88 1010.6
20260506140043 76 352 0.0 4.0 0.00 0.00 0.00 89 1010.9
20260506134533 75 124 0.0 3.0 0.00 0.00 0.00 91 1010.3
20260506133024 75 87 0.0 3.0 0.00 0.00 0.00 91 1010.4
20260506131535 74 227 0.0 2.0 0.00 0.00 0.00 91 1010.2
20260506130030 73 134 0.0 2.0 0.00 0.00 0.00 92 1010.1
20260506124526 73 143 0.0 2.0 0.00 0.00 0.00 92 1009.9
20260506123036 73 128 0.0 1.0 0.00 0.00 0.00 92 1009.7
20260506121505 73 264 0.0 0.0 0.00 0.00 0.00 91 1009.7
20260506120022 73 264 0.0 0.0 0.00 0.00 0.00 91 1009.8
20260506114507 73 264 0.0 0.0 0.00 0.00 0.00 91 1009.6
20260506113004 73 264 0.0 0.0 0.00 0.00 0.00 91 1009.8
20260506111507 74 264 0.0 0.0 0.00 0.00 0.00 90 1009.7
20260506110009 74 264 0.0 1.0 0.00 0.00 0.00 90 1009.9
20260506104523 74 261 0.0 2.0 0.00 0.00 0.00 90 1009.7
20260506103002 74 240 0.0 2.0 0.00 0.00 0.00 90 1009.6
20260506101504 74 128 0.0 2.0 0.00 0.00 0.00 89 1009.6
20260506100016 74 135 0.0 3.0 0.00 0.00 0.00 89 1009.4
20260506094514 74 33 0.0 3.0 0.00 0.00 0.00 89 1009.3
20260506093030 74 182 0.0 2.0 0.00 0.00 0.00 89 1008.9
20260506091502 74 142 0.0 2.0 0.00 0.00 0.00 89 1008.9
20260506090007 75 140 0.0 3.0 0.00 0.00 0.00 88 1008.6
20260506084511 75 62 0.0 2.0 0.00 0.00 0.00 88 1008.7
20260506083027 75 244 0.0 4.0 0.00 0.00 0.00 88 1008.6
20260506081521 75 236 1.0 5.0 0.00 0.00 0.00 88 1008.5
20260506073014 75 205 2.0 8.0 0.00 0.00 0.00 87 1008.9
20260506071520 75 348 1.0 7.0 0.00 0.00 0.00 87 1009.1
20260506061518 75 277 0.0 3.0 0.00 0.00 0.00 88 1008.9
20260506044533 75 277 1.0 9.0 0.00 0.00 0.00 88 1008.7
20260506043027 75 291 1.0 3.0 0.00 0.00 0.00 88 1008.8
20260506041514 75 107 1.0 5.0 0.00 0.00 0.00 88 1008.7
20260506040020 75 131 0.0 3.0 0.00 0.00 0.00 88 1008.6
20260506034522 76 283 1.0 8.0 0.00 0.00 0.00 87 1008.4
20260506033029 76 144 1.0 7.0 0.00 0.00 0.00 87 1008.3
20260506031540 76 146 0.0 6.0 0.00 0.00 0.00 86 1008.1
20260506030014 76 351 0.0 9.0 0.00 0.00 0.00 85 1008.0
20260506024506 77 30 0.0 4.0 0.00 0.00 0.00 83 1007.9
20260506023004 77 126 0.0 5.0 0.00 0.00 0.00 83 1007.4
20260506021508 77 149 1.0 5.0 0.00 0.00 0.00 82 1007.2
20260506020017 77 108 0.0 6.0 0.00 0.00 0.00 84 1006.8
20260506014523 77 107 0.0 4.0 0.00 0.00 0.00 83 1006.7
20260506013003 78 165 0.0 2.0 0.00 0.00 0.00 81 1006.7
20260506011510 78 205 0.0 6.0 0.00 0.00 0.00 81 1006.5
20260506010029 78 199 0.0 4.0 0.00 0.00 0.00 81 1006.6
20260506004517 79 183 0.0 2.0 0.00 0.00 0.00 81 1006.5
20260506003023 80 328 0.0 2.0 0.00 0.00 0.00 80 1006.5
20260506001504 80 175 0.0 2.0 0.00 0.00 0.00 78 1006.6
20260506000013 80 33 1.0 6.0 0.00 0.00 0.00 78 1006.6
20260505234514 81 226 0.0 5.0 0.00 0.00 0.00 77 1006.4
20260505233020 81 261 0.0 5.0 0.00 0.00 0.00 77 1006.2
20260505231521 81 269 0.0 10.0 0.00 0.00 0.00 78 1006.1
20260505230006 81 150 1.0 7.0 0.00 0.00 0.00 76 1006.1
20260505224533 82 115 0.0 6.0 0.00 0.00 0.00 76 1006.0
20260505223018 82 126 1.0 9.0 0.00 0.00 0.00 73 1006.0
20260505221522 82 266 1.0 5.0 0.00 0.00 0.00 74 1005.9
20260505220027 83 182 1.0 9.0 0.00 0.00 0.00 71 1006.1
20260505214512 83 300 1.0 9.0 0.00 0.00 0.00 73 1006.4
20260505213021 83 122 2.0 7.0 0.00 0.00 0.00 75 1006.5
20260505211522 84 63 0.0 10.0 0.00 0.00 0.00 75 1006.8
20260505210022 84 207 2.0 8.0 0.00 0.00 0.00 70 1006.8
20260505204527 84 339 1.0 7.0 0.00 0.00 0.00 71 1006.9
20260505203036 83 136 2.0 9.0 0.00 0.00 0.00 74 1007.1
20260505201519 83 167 1.0 9.0 0.00 0.00 0.00 72 1007.4
20260505200021 83 155 1.0 4.0 0.00 0.00 0.00 75 1007.7
20260505194526 83 155 0.0 9.0 0.00 0.00 0.00 74 1007.9
20260505193028 82 132 0.0 6.0 0.00 0.00 0.00 76 1008.1
20260505191518 82 221 1.0 9.0 0.00 0.00 0.00 78 1008.2
20260505190029 80 218 1.0 10.0 0.00 0.00 0.00 77 1008.3